Flag for Japan Weather past 2 weeks in Suzuka, Japan

Now
40 °F

Chilly.


Feels Like: 38 °F
Forecast: 35 / 45 °F
Wind: 3 mph from North

Location: Tsu

Current Time: Dec 20, 2014 at 10:54:16 AM

Latest Report: Dec 20, 2014 at 10:00 AM


Visibility: N/A

Pressure: 30.15 "Hg

Humidity: 71%

Dew point: 31 °F

Location of SuzukaLocation

Historic Weather in Suzuka — Graph

°F

Suzuka temperature yesterday

Maximum temperature yesterday: 46 °F (at 11:00 AM)
Minimum temperature yesterday: 35 °F (at 1:00 AM)
Average temperature yesterday: 40 °F

Past Weeks' High & Low Weather Summary

 TemperatureHumidityPressure
High53 °F (Dec 11, 1:00 PM)92% (Dec 16, 12:00 PM)30.52 "Hg (Dec 16, 12:00 PM)
Low33 °F (Dec 18, 1:00 AM)25% (Dec 17, 12:00 PM)29.57 "Hg (Dec 16, 4:00 PM)
Average42 °F58%30.12 "Hg
* Reported Dec 5 9:00 AM — Dec 20 9:00 AM, Suzuka, Weather by CustomWeather, © 2014

Note: Actual official high and low records may vary slightly from our data, if they occured in-between our weather recording intervals... More about our weather records

Advertising

Suzuka weather history for previous 24 hours

 ConditionsComfort  
Time TempWeatherWind HumidityBarometerVisibility
9:00 AM
Dec 20
39 °FSprinkles. Overcast.3 mph73%30.19 "Hg9 mi
8:00 AM39 °FChilly.2 mph74%30.23 "HgN/A
7:00 AM38 °FChilly.3 mph74%30.25 "HgN/A
6:00 AM39 °FChilly.3 mph70%30.28 "HgN/A
5:00 AM38 °FChilly.2 mph75%30.29 "HgN/A
4:00 AM38 °FChilly.6 mph77%30.32 "HgN/A
3:00 AM38 °FChilly.5 mph77%30.34 "HgN/A
2:00 AM38 °FChilly.5 mph77%30.39 "HgN/A
1:00 AM38 °FChilly.3 mph77%30.40 "HgN/A
12:00 AM38 °FChilly.3 mph77%30.41 "HgN/A
11:00 PM
Dec 19
38 °FChilly.3 mph75%30.41 "HgN/A
10:00 PM38 °FChilly.5 mph74%30.44 "HgN/A
9:00 PM40 °FOvercast.2 mph70%30.45 "Hg9 mi
8:00 PM40 °FQuite cool.5 mph69%30.44 "HgN/A
7:00 PM41 °FQuite cool.6 mph67%30.43 "HgN/A
6:00 PM43 °FQuite cool.5 mph57%30.42 "HgN/A
5:00 PM44 °FQuite cool.6 mph58%30.43 "HgN/A
4:00 PM44 °FQuite cool.5 mph54%30.45 "HgN/A
3:00 PM45 °FPassing clouds.7 mph56%30.44 "Hg12 mi
2:00 PM46 °FCool.3 mph52%30.42 "HgN/A
1:00 PM46 °FCool.3 mph44%30.44 "HgN/A
11:00 AM46 °FCool.3 mph47%30.50 "HgN/A
10:00 AM43 °FQuite cool.6 mph55%30.52 "HgN/A
Weather by CustomWeather, © 2014

See weather overviewHow to use our weather pages